MET-3/5
1 21655U 91056A   05348.91092182  .00000051  00000-0  10000-3 0 09903
2 21655 082.5598 030.9896 0013879 138.0162 222.2029 13.17005219689104
MET-2/21
1 22782U 93055A   05348.91616085  .00000236  00000-0  20073-3 0 03797
2 22782 082.5436 117.6401 0021899 340.3967 019.6386 13.83600439620561
OKEAN-4
1 23317U 94066A   05348.73185152  .00000379  00000-0  44376-4 0 08124
2 23317 082.5400 089.0435 0020636 262.3335 097.5525 14.82279772602658
NOAA-14
1 23455U 94089A   05348.56751824  .00000174  00000-0  11641-3 0 09085
2 23455 099.0683 039.6274 0009100 208.0012 152.0682 14.13620030564986
SICH-1
1 23657U 95046A   05348.87186667  .00000392  00000-0  47073-4 0 06172
2 23657 082.5287 229.7611 0022521 248.6839 111.2004 14.81284164554706
NOAA-15
1 25338U 98030A   05348.72274352  .00000022  00000-0  27663-4 0 03102
2 25338 098.5143 351.5797 0010485 187.7458 172.3565 14.24553144394455
RESURS
1 25394U 98043A   05348.92235697  .00000020  00000-0  27355-4 0 02700
2 25394 098.5203 052.8018 0001781 022.0675 338.0578 14.24090372386176
FENGYUN1
1 25730U 99025A   05348.57403429 -.00000214  00000-0 -94063-4 0 06044
2 25730 098.6145 343.2213 0014071 310.2946 049.6998 14.11802840339962
OKEAN-0
1 25860U 99039A   05349.63938204  .00000148  00000-0  30114-4 0  6169
2 25860 097.7446 007.4366 0001401 039.1325 321.0017 14.73322398344721
NOAA-16
1 26536U 00055A   05348.59549169  .00000333  00000-0  20587-3 0 06575
2 26536 099.0387 308.3060 0009817 280.9343 079.0756 14.12299546269525
NOAA-17
1 27453U 02032A   05348.55501215  .00000036  00000-0  34624-4 0 06856
2 27453 098.6444 059.1802 0011071 250.2137 109.7844 14.23731601180508
NOAA-18
1 28654U 05018A   05349.46830397  .00000368  00000-0  22917-3 0  2792
2 28654 098.7667 291.8821 0014813 024.5266 335.6609 14.10913083 29477
HUBBLE
1 20580U 90037B   05348.85630532  .00000651  00000-0  38157-4 0 04946
2 20580 028.4654 171.4078 0003353 030.1340 329.9437 14.99920703657390
UARS
1 21701U 91063B   05349.46208921  .00003705  00000-0  80483-4 0  6363
2 21701 056.9781 162.9710 0107190 214.5995 144.8057 15.41322161780952
PO-34
1 25520U 98064B   05349.82126059  .00000807  00000-0  30494-4 0  3460
2 25520 028.4569 177.7064 0005525 048.2306 311.8765 15.16550237394183
ISS
1 25544U 98067A   05349.94881944  .00013541  00000-0  10081-3 0  9535
2 25544 051.6458 049.3426 0010450 045.0338 303.4528 15.73096643404289
OO-38
1 26063U 00004C   05348.62084842  .00000131  00000-0  65465-4 0 05008
2 26063 100.1923 241.4268 0036557 267.5026 092.1958 14.35746576308199
NO-45
1 26932U 01043D   05348.58873241  .00000189  00000-0  10622-3 0 01958
2 26932 067.0563 122.8302 0004693 291.6494 068.4092 14.29510983219582
